Theta_e
355 349 350 349 347 345 345 346 352 350 348 346 344 342 344 340 338 340 335 336 336 335
351 355 351 357 356 347 350 347 349 347 345 343 342 342 343 337 337 340 339 338 337 336
353 353 352 351 351 349 349 346 344 343 342 342 341 341 341 338 340 338 341 337 334 335
348 348 348 348 345 345 346 343 341 341 340 338 337 338 340 339 337 335 336 334 329 330
346 347 345 343 343 343 341 341 338 337 335 334 335 338 338 335 335 334 332 327 326 326
343 343 344 342 342 341 339 337 335 334 333 333 335 335 336 335 334 334 331 329 327 328
341 341 341 340 340 338 336 335 334 336 334 335 334 333 332 335 335 333 330 326 328 329
339 339 337 336 336 336 336 334 334 333 334 334 332 330 334 335 334 329 326 327 328 332
333 333 335 336 335 335 334 334 335 334 334 333 330 308 311 325 331 330 327 326 329 333
331 331 333 333 332 333 336 337 334 334 334 335 332 306 308 314 331 328 327 328 328 330
331 330 332 331 331 335 334 335 337 335 335 336 326 306 306 310 332 328 326 327 329 330
329 329 329 330 333 333 335 334 336 335 335 335 329 305 305 316 331 326 325 325 325 328
331 330 329 331 332 336 336 333 332 334 336 321 327 303 306 320 326 323 320 323 321 308
331 331 331 334 334 335 335 334 333 334 333 332 328 321 306 310 326 321 321 320 319 322
Wind_Speed
13 10 11 14 12 11 10 10 13 9 11 11 10 9 6 6 7 7 7 5 7 2
13 12 12 11 12 9 9 11 11 12 11 9 9 7 7 7 7 4 5 5 5 3
10 12 14 10 9 12 12 12 12 11 9 8 8 9 7 7 7 6 5 5 5 4
12 13 12 10 12 12 11 11 11 11 10 8 7 7 7 4 5 8 8 6 2 4
12 14 13 13 13 12 11 10 9 8 8 9 10 8 8 8 7 9 10 7 5 10
15 14 13 13 12 11 9 8 9 9 9 5 4 5 5 6 5 7 9 10 9 11
14 13 12 12 10 10 10 10 10 7 7 5 3 2 3 2 3 7 7 4 7 5
13 12 11 11 10 10 9 9 5 5 5 4 2 6 5 2 5 6 6 6 5 7
13 12 11 11 7 10 8 6 4 7 3 4 9 8 5 2 7 7 7 5 5 6
11 9 9 10 10 10 8 5 6 5 5 5 8 6 5 7 7 7 5 5 2 3
13 10 7 8 11 9 6 6 5 4 5 8 7 5 3 4 7 7 5 4 3 3
10 10 11 6 9 7 8 7 7 6 5 9 7 5 4 4 7 7 4 4 4 3
11 13 8 12 9 5 8 7 3 8 7 11 9 6 5 5 5 6 3 4 3 7
11 13 12 12 5 4 5 5 4 10 7 7 9 6 6 7 6 5 5 4 5 3
Wind_Direction
177 177 159 183 160 162 172 165 165 168 168 172 174 184 155 195 220 192 209 220 245 307
171 169 165 148 145 159 141 144 164 164 174 172 179 166 196 236 184 180 166 215 226 249
154 138 129 138 150 140 135 152 158 160 168 174 186 197 191 205 169 164 178 200 207 237
126 131 147 133 135 131 143 145 161 167 178 185 189 192 196 236 209 206 181 183 159 312
138 138 135 139 138 143 149 164 165 163 175 181 189 166 212 215 216 184 172 152 185 237
134 135 137 139 142 149 146 155 161 168 182 166 143 170 223 244 230 183 170 181 206 229
136 138 141 141 146 144 159 161 164 173 148 148 159 197 267 30 197 183 170 171 252 240
136 143 143 148 153 159 159 162 129 160 92 120 133 39 10 94 91 125 158 193 233 223
147 147 144 148 138 161 147 101 234 94 147 141 69 57 14 12 128 145 134 160 194 146
127 125 146 146 160 163 104 179 106 163 128 105 93 68 25 33 135 121 107 112 130 204
147 129 147 158 158 110 131 151 128 128 117 108 92 88 52 349 137 125 126 145 165 168
139 163 135 188 129 125 152 157 177 147 130 104 104 103 56 2 119 113 106 112 122 238
175 128 185 149 117 169 153 170 175 115 98 95 119 94 66 87 109 115 105 107 114 23
135 146 163 137 140 161 189 149 192 99 86 100 108 103 81 130 135 134 130 119 118 111